Weather History for Rochester, MN

Change the Weather History Date:

Saturday, January 5, 2013

  Actual Average Record
Temperature  
Mean Temperature 18 °F 16 °F  
Max Temperature 27 °F 24 °F 55 °F (2012)
Min Temperature 8 °F 8 °F -27 °F (1979)
Degree Days  
Heating Degree Days 47 49  
Month to date heating degree days 256 245  
Since 1 July heating degree days 2974 3323  
Cooling Degree Days 0 0  
Month to date cooling degree days 0 0  
Year to date cooling degree days 0 0  
Moisture  
Dew Point 12 °F    
Average Humidity 78    
Maximum Humidity 88    
Minimum Humidity 68    
Precipitation  
Precipitation 0.00 in 0.03 in 1.00 in (1946)
Month to date precipitation 0.01 0.14  
Year to date precipitation 0.01 0.14  
Snow  
Snow 0.00 in 0.40 in 8.50 in (1910)
Month to date snowfall 0.3 1.7  
Since 1 July snowfall 14.8 21.1  
Snow Depth 4.00 in    
Sea Level Pressure  
Sea Level Pressure 30.02 in    
Wind  
Wind Speed 12 mph (SW)    
Max Wind Speed 26 mph    
Max Gust Speed 31 mph    
Visibility 7 miles    
Events      
T = Trace of Precipitation, MM = Missing Value Source: NWS Daily Summary

Daily Weather History Graph

Daily Weather History Graph

Search for Another Location

Airport:

Trip Planner

Search our weather history database for the weather conditions in past years. The results will help you decide how hot, cold, wet, or windy it might be!

Date:

Astronomy

Jan. 05, 2013 Rise Set
Actual Time 7:44 AM CST 4:47 PM CST
Civil Twilight 7:11 AM CST 5:19 PM CST
Nautical Twilight 6:35 AM CST 5:55 PM CST
Astronomical Twilight 6:00 AM CST 6:30 PM CST
Moon 12:44 AM CST (1/5) 11:43 AM CST (1/5)
Length of Visible Light 10h 08m
Length of Day
9h 02m
Last Quarter, 44% of the Moon is Illuminated
Jan 5
Last Quarter
Jan 11
New
Jan 18
First Quarter
Jan 26
Full
Feb 3
Last Quarter

Hourly Weather History & Observations

Time (CST) Temp. Windchill Dew Point Humidity Pressure Visibility Wind Dir Wind Speed Gust Speed Precip Events Conditions
12:54 AM 10.4 °F -6.0 °F 6.8 °F 85% 30.09 in 7.0 mi South 15.0 mph - N/A   Clear
1:54 AM 15.1 °F 9.4 °F 9.0 °F 77% 30.15 in 7.0 mi South 3.5 mph - N/A   Clear
2:54 AM 10.0 °F 1.8 °F 5.0 °F 80% 30.14 in 5.0 mi SSE 4.6 mph - N/A   Haze
3:54 AM 9.0 °F -3.2 °F 5.0 °F 84% 30.12 in 6.0 mi SSE 8.1 mph - N/A   Clear
4:54 AM 10.0 °F 0.4 °F 6.1 °F 84% 30.09 in 5.0 mi SSE 5.8 mph - N/A   Clear
5:54 AM 12.0 °F -2.7 °F 7.0 °F 80% 30.08 in 5.0 mi South 12.7 mph - N/A   Haze
6:54 AM 15.1 °F 2.5 °F 10.9 °F 84% 30.06 in 6.0 mi South 10.4 mph - N/A   Clear
7:54 AM 14.0 °F 1.2 °F 10.0 °F 84% 30.06 in 5.0 mi South 10.4 mph - N/A   Clear
8:54 AM 15.1 °F 2.5 °F 10.0 °F 80% 30.05 in 6.0 mi South 10.4 mph - N/A   Haze
9:54 AM 23.0 °F 8.3 °F 17.1 °F 78% 30.03 in 6.0 mi South 19.6 mph - N/A   Haze
10:54 AM 24.1 °F 9.0 °F 18.0 °F 77% 30.01 in 5.0 mi South 21.9 mph - N/A   Haze
11:54 AM 27.0 °F 14.7 °F 19.0 °F 72% 29.96 in 7.0 mi SSW 16.1 mph - N/A   Clear
12:54 PM 27.0 °F 14.7 °F 18.0 °F 69% 29.94 in 8.0 mi SSW 16.1 mph - 0.01 in   Clear
1:54 PM 25.0 °F 13.6 °F 19.0 °F 78% 29.93 in 6.0 mi SSW 12.7 mph - N/A   Haze
2:54 PM 26.1 °F 14.0 °F 19.0 °F 75% 29.92 in 7.0 mi SW 15.0 mph - N/A   Clear
3:54 PM 25.0 °F 14.2 °F 18.0 °F 75% 29.93 in 7.0 mi SW 11.5 mph - N/A   Partly Cloudy
4:54 PM 21.0 °F 9.9 °F 15.1 °F 78% 29.94 in 6.0 mi West 10.4 mph - N/A   Haze
5:54 PM 18.0 °F 6.9 °F 12.0 °F 78% 29.96 in 7.0 mi WSW 9.2 mph - N/A   Clear
6:54 PM 18.0 °F 6.9 °F 12.0 °F 78% 29.96 in 7.0 mi West 9.2 mph - N/A   Clear
7:54 PM 19.9 °F 5.7 °F 12.9 °F 74% 29.98 in 8.0 mi WNW 16.1 mph - N/A   Partly Cloudy
8:54 PM 18.0 °F 4.2 °F 10.9 °F 74% 29.98 in 10.0 mi NW 13.8 mph - N/A   Overcast
9:54 PM 17.1 °F 2.0 °F 10.9 °F 77% 30.01 in 10.0 mi WNW 16.1 mph - N/A   Clear
10:54 PM 14.0 °F -0.2 °F 9.0 °F 80% 30.02 in 9.0 mi WNW 12.7 mph - N/A   Clear
11:54 PM 14.0 °F -0.8 °F 9.0 °F 80% 30.03 in 7.0 mi WNW 13.8 mph - N/A   Partly Cloudy